Flag for Japan Weather past 2 weeks in Fukuoka, Japan

Now
39 °F

Snow flurries. Partly cloudy.


Feels Like: 30 °F
Forecast: 41 / 47 °F
Wind: 16 mph from Northwest

Location: Fukuoka Airport

Current Time: Dec 22, 2014 at 5:30:56 AM

Latest Report: Dec 22, 2014 at 5:00 AM


Visibility: N/A

Pressure: 30.15 "Hg

Humidity: 45%

Dew point: 19 °F

Location of FukuokaLocation

Historic Weather in Fukuoka — Graph

°F

Fukuoka temperature yesterday

Maximum temperature yesterday: 45 °F (at 12:00 AM)
Minimum temperature yesterday: 34 °F (at 8:00 PM)
Average temperature yesterday: 41 °F

Past Weeks' High & Low Weather Summary

 TemperatureHumidityPressure
High61 °F (Dec 10, 3:00 PM)100% (Dec 20, 5:00 AM)30.51 "Hg (Dec 20, 5:00 AM)
Low28 °F (Dec 19, 12:00 AM)34% (Dec 14, 3:30 PM)29.86 "Hg (Dec 16, 7:30 AM)
Average44 °F62%30.22 "Hg
* Reported Dec 7 4:00 AM — Dec 22 4:30 AM, Fukuoka, Weather by CustomWeather, © 2014

Note: Actual official high and low records may vary slightly from our data, if they occured in-between our weather recording intervals... More about our weather records

Advertising

Fukuoka weather history for previous 24 hours

 ConditionsComfort  
Time TempWeatherWind HumidityBarometerVisibility
4:30 AM
Dec 22
41 °FPartly cloudy.17 mph45%30.15 "HgN/A
4:00 AM41 °FSnow flurries. Passing clouds.13 mph45%30.15 "HgN/A
3:30 AM41 °FPassing clouds.14 mph42%30.15 "HgN/A
3:00 AM41 °FPassing clouds.16 mph45%30.15 "HgN/A
2:30 AM41 °FPartly cloudy.20 mph57%30.12 "HgN/A
2:00 AM41 °FScattered showers. Partly cloudy.17 mph53%30.12 "HgN/A
1:30 AM41 °FPartly cloudy.13 mph53%30.12 "HgN/A
1:00 AM41 °FPartly cloudy.13 mph61%30.12 "HgN/A
12:30 AM41 °FPartly cloudy.14 mph53%30.09 "HgN/A
12:00 AM41 °FPartly cloudy.14 mph49%30.12 "HgN/A
11:30 PM
Dec 21
41 °FPartly cloudy.14 mph61%30.12 "HgN/A
11:00 PM43 °FPartly cloudy.15 mph49%30.12 "HgN/A
10:30 PM43 °FPartly cloudy.17 mph53%30.12 "HgN/A
10:00 PM41 °FPartly cloudy.12 mph70%30.12 "HgN/A
9:30 PM37 °FPartly cloudy.3 mph87%30.12 "HgN/A
9:00 PM36 °FPartly cloudy.8 mph93%30.12 "HgN/A
8:30 PM36 °FSprinkles. Partly cloudy.3 mph93%30.12 "HgN/A
8:00 PM34 °FSprinkles. Partly cloudy.7 mph100%30.12 "HgN/A
7:30 PM36 °FSprinkles. Partly cloudy.7 mph93%30.12 "Hg5 mi
7:00 PM37 °FSprinkles. Partly cloudy.7 mph87%30.12 "Hg4 mi
6:30 PM37 °FSprinkles. Partly cloudy.5 mph93%30.12 "Hg5 mi
6:00 PM37 °FSprinkles. Partly cloudy.3 mph87%30.09 "Hg5 mi
5:30 PM37 °FSprinkles. Passing clouds.2 mph87%30.09 "Hg5 mi
5:00 PM37 °FSprinkles. Partly sunny.5 mph87%30.09 "Hg5 mi
4:30 PM39 °FSprinkles. Broken clouds.7 mph81%30.09 "HgN/A
4:00 PM41 °FSprinkles. Broken clouds.6 mph70%30.09 "HgN/A
3:30 PM41 °FScattered showers. Broken clouds.5 mph61%30.09 "HgN/A
3:00 PM41 °FSprinkles. Broken clouds.9 mph61%30.09 "HgN/A
2:30 PM41 °FSprinkles. Broken clouds.6 mph61%30.12 "HgN/A
2:00 PM43 °FScattered showers. Partly sunny.8 mph49%30.12 "HgN/A
1:30 PM43 °FBroken clouds.2 mph61%30.12 "HgN/A
1:00 PM43 °FBroken clouds.2 mph61%30.12 "HgN/A
12:30 PM41 °FPartly sunny.5 mph66%30.12 "HgN/A
11:30 AM41 °FPartly sunny.9 mph61%30.18 "HgN/A
11:00 AM41 °FSprinkles. Broken clouds.8 mph61%30.18 "HgN/A
10:30 AM39 °FSprinkles. Broken clouds.12 mph70%30.18 "HgN/A
10:00 AM41 °FSprinkles. Partly sunny.13 mph61%30.18 "HgN/A
9:30 AM41 °FSprinkles. Partly sunny.12 mph57%30.18 "HgN/A
9:00 AM41 °FSprinkles. Partly sunny.10 mph57%30.18 "HgN/A
8:30 AM41 °FSprinkles. Partly sunny.9 mph57%30.18 "HgN/A
8:00 AM41 °FSprinkles. Partly sunny.10 mph57%30.15 "HgN/A
7:30 AM43 °FSprinkles. Broken clouds.10 mph53%30.15 "HgN/A
6:30 AM41 °FPassing clouds.6 mph53%30.15 "HgN/A
6:00 AM39 °FPassing clouds.8 mph61%30.12 "HgN/A
5:30 AM41 °FPassing clouds.7 mph53%30.12 "HgN/A
5:00 AM43 °FPassing clouds.9 mph49%30.12 "HgN/A
Weather by CustomWeather, © 2014

See weather overviewHow to use our weather pages